Regional Weather Roundup
Issued by NWS

Home | Current Version | Previous Version | Text Only | Print | Product List | Glossary On
Versions: 1 2 3 4 5 6 7 8 9 10 11 12 13 14 15 16 17 18 19 20 21 22 23 24 25 26 27 28 29 30 31 32 33 34 35 36 37 38 39 40 41 42 43 44 45 46 47 48 49 50
000
ASUS43 KDTX 282010
RWRMI
MICHIGAN HOURLY REGIONAL WEATHER ROUNDUP
NATIONAL WEATHER SERVICE DETROIT/PONTIAC MI
400 PM EDT THU APR 28 2016

NOTE: "FAIR" INDICATES FEW OR NO CLOUDS BELOW 12,000 FEET WITH NO
SIGNIFICANT WEATHER AND/OR OBSTRUCTION TO VISIBILITY.

MIZ047>049-052>055-059>063-066>070-074>076-081>083-282100-
SOUTHEAST LOWER MICHIGAN

CITY           SKY/WX    TMP DP  RH WIND       PRES   REMARKS
ADRIAN         CLOUDY    46  36  68 E18       29.97R
ALMA           LGT RAIN  41  35  77 NE12G18   30.02S
ANN ARBOR      LGT RAIN  47  35  63 E10       29.96S
BAD AXE        CLOUDY    45  31  57 N6        30.05S
CARO           CLOUDY    49  26  40 E6        30.01F
DETROIT CITY   CLOUDY    47  31  53 NE7       29.99R
DETROIT        LGT RAIN  48  32  53 NE10      29.98R
FLINT          LGT RAIN  49  33  54 NE10      29.99F
GROSSE ILE     DRIZZLE   48  36  61 NE9       29.96R
HILLSDALE      CLOUDY    47  37  68 E12       29.93F
HOWELL         CLOUDY    46  35  65 E12       29.96F

CITY           SKY/WX    TMP DP  RH WIND       PRES   REMARKS
JACKSON        CLOUDY    44  39  82 E7        29.97R
LAMBERTVILLE   CLOUDY    47  36  63 E12G21    29.96R
LANSING        LGT RAIN  43  39  86 N9        29.99R
LAPEER         LGT RAIN  47  25  42 E6        30.00F
MASON          CLOUDY    45  37  73 E9        29.97R
MONROE         CLOUDY    46  37  71 NE7       29.96R
MT. CLEMENS    CLOUDY    48  32  54 NE8       29.98R
PONTIAC        CLOUDY    47  29  49 VRB6      29.98R
PORT HOPE        N/A     40  35  83 NE16      30.04R WCI  31
PORT HURON     LGT RAIN  48  32  53 N8        30.00R
TRI CITIES     LGT RAIN  47  34  60 NE16      30.03F
MIDLAND        LGT RAIN  42  36  78 NE8       30.04S
TROY           CLOUDY    47  30  50 NE7       30.01S
SAGINAW HB     CLOUDY    46  30  53 NE10      30.01F
$$
MIZ043>046-050>051-056>058-064>065-071>073-077>080-282100-
SOUTHWEST LOWER MICHIGAN

CITY           SKY/WX    TMP DP  RH WIND       PRES   REMARKS
BATTLE CREEK   CLOUDY    47  39  74 E13       29.95S
BENTON HARBOR  CLOUDY    52  43  71 E14G20    29.91S
BIG RAPIDS     LGT RAIN  41  34  76 E14       30.02S
COLDWATER      CLOUDY    51  40  67 E12G18    29.92F
FREMONT        CLOUDY    40  37  87 E15       30.00F WCI  32
HOLLAND        CLOUDY    43  39  86 E12       29.96S
GRAND RAPIDS   LGT RAIN  43  39  86 E13       29.98S FOG
IONIA          CLOUDY    41  36  82 E7        30.00R
KALAMAZOO      CLOUDY    51  40  65 E7        29.94S
LUDINGTON      CLOUDY    43  34  70 E21       30.03F
MARSHALL       CLOUDY    47  39  73 E7        29.94F
MOUNT PLEASANT LGT RAIN  42  37  83 NE7       30.02F
MUSKEGON       CLOUDY    43  36  76 E15       29.99S
SOUTH HAVEN    CLOUDY    48  41  77 E12       29.93S
$$
MIZ016>042-282100-
NORTHERN LOWER MICHIGAN

CITY           SKY/WX    TMP DP  RH WIND       PRES   REMARKS
ALPENA         MOSUNNY   46  30  53 E9        30.10S
BEAVER ISLAND  CLOUDY    45  30  56 NE13      30.08S
BELLAIRE       CLOUDY    55  22  28 CALM      30.03F
CADILLAC       LGT RAIN  45  27  49 E14       30.02S
CHARLEVOIX     CLOUDY    46  32  60 N12       30.08S
GAYLORD        CLOUDY    51  26  37 NE6       30.03S
GRAYLING       CLOUDY    51  22  33 SE9       30.04S
HARBOR SPRINGS CLOUDY    52  30  43 E12       30.06F
HOUGHTON LAKE  CLOUDY    46  22  38 E10       30.04F
MANISTEE       CLOUDY    46  32  57 E6        30.04S
OSCODA         CLOUDY    41  30  64 N10       30.08R
PELLSTON       CLOUDY    49  28  44 NE13      30.08S
ROGERS CITY    MOSUNNY   42  22  45 E8        30.12S
TRAVERSE CITY  CLOUDY    53  24  32 E5        30.02F
$$
MIZ007>008-015-282100-
EASTERN UPPER MICHIGAN

CITY           SKY/WX    TMP DP  RH WIND       PRES   REMARKS
KINROSS          N/A     52  23  32 SE10G16   30.09S
MACKINAC ISLAN CLOUDY    42  22  44 E12       30.10F
NEWBERRY       MOSUNNY   52  29  41 S10       30.07S
S. S. MARIE    SUNNY     53  25  33 CALM      30.07F
MUNISING         N/A     41  33  73 N10       30.10S
$$
MIZ004>006-011>014-085-282100-
CENTRAL UPPER MICHIGAN

CITY           SKY/WX    TMP DP  RH WIND       PRES   REMARKS
MANISTIQUE     CLOUDY    48  30  50 SE8       30.07F
ESCANABA       CLOUDY    50  28  43 SE9       30.07F
MENOMINEE      CLOUDY    45  28  53 E13       30.06F
$$
MIZ001>003-009>011-084-282100-
WESTERN UPPER MICHIGAN

CITY           SKY/WX    TMP DP  RH WIND       PRES   REMARKS
IRON MOUNTAIN  CLOUDY    53  20  27 SE12      30.03F
HOUGHTON       SUNNY     46  25  43 E13       30.11S
COPPER HARBOR    N/A     41  31  67 E7        30.15S
IRONWOOD       CLOUDY    46  32  57 NW12      30.03S
$$

ABBREVIATIONS USED IN REMARKS
   TC - TEMPERATURE IN CELSIUS
  WCI - WIND CHILL INDEX
   HX - HEAT INDEX
  VSB - VISIBILITY




USA.gov is the U.S. government's official web portal to all federal, state and local government web resources and services.